• In Hungary
  • List of Countries
  • For 7 days
  • Water Temperature
  • Satellite Maps
  • Weather Map
  • News
  • Weather Widgets
  • user-avatar
    Login

    Hourly Weather Kollektiv

    Today, 22 August, Wednesday

    Time Temperature Precipitation Wind Pressure Humidity
    00:00 +16°C° 0 mm 3 mps 739 mmHg 89%
    01:00 +14°C° 0 mm 3 mps 739 mmHg 89%
    02:00 +13°C° 0 mm 3 mps 740 mmHg 88%
    03:00 +13°C° 0 mm 3 mps 740 mmHg 88%
    04:00 +12°C° 0 mm 3 mps 740 mmHg 88%
    05:00 +12°C° 0 mm 4 mps 741 mmHg 88%
    06:00 +11°C° 0 mm 4 mps 741 mmHg 88%
    07:00 +12°C° 0 mm 4 mps 741 mmHg 82%
    08:00 +13°C° 0 mm 5 mps 742 mmHg 75%
    09:00 +14°C° 0 mm 6 mps 742 mmHg 69%
    10:00 +15°C° 0 mm 6 mps 742 mmHg 64%
    11:00 +16°C° 0 mm 6 mps 743 mmHg 59%
    12:00 +17°C° 0 mm 6 mps 743 mmHg 54%
    13:00 +19°C° 0 mm 6 mps 743 mmHg 53%
    14:00 +19°C° 0 mm 6 mps 743 mmHg 52%
    15:00 +20°C° 0 mm 6 mps 743 mmHg 50%
    16:00 +19°C° 0 mm 5 mps 744 mmHg 53%
    17:00 +19°C° 0 mm 5 mps 744 mmHg 57%
    18:00 +18°C° 0 mm 4 mps 744 mmHg 60%
    19:00 +17°C° 0 mm 4 mps 745 mmHg 63%
    20:00 +14°C° 0 mm 3 mps 745 mmHg 66%
    21:00 +13°C° 0 mm 3 mps 745 mmHg 69%
    22:00 +12°C° 0 mm 3 mps 746 mmHg 70%
    23:00 +12°C° 0 mm 3 mps 746 mmHg 72%

    Tomorrow, 23 August, Thursday

    Time Temperature Precipitation Wind Pressure Humidity
    00:00 +11°C° 0 mm 3 mps 747 mmHg 73%
    01:00 +11°C° 0 mm 3 mps 747 mmHg 74%
    02:00 +10°C° 0 mm 3 mps 747 mmHg 75%
    03:00 +10°C° 0 mm 3 mps 747 mmHg 77%
    04:00 +9°C° 0 mm 3 mps 748 mmHg 77%
    05:00 +9°C° 0 mm 3 mps 748 mmHg 78%
    06:00 +9°C° 0 mm 2 mps 748 mmHg 79%
    07:00 +12°C° 0 mm 2 mps 749 mmHg 73%
    08:00 +14°C° 0 mm 2 mps 749 mmHg 68%
    09:00 +15°C° 0 mm 2 mps 749 mmHg 62%
    10:00 +17°C° 0 mm 2 mps 749 mmHg 57%
    11:00 +18°C° 0 mm 3 mps 749 mmHg 52%
    12:00 +19°C° 0 mm 3 mps 749 mmHg 47%
    13:00 +19°C° 0 mm 3 mps 749 mmHg 46%
    14:00 +20°C° 0 mm 3 mps 749 mmHg 45%
    15:00 +20°C° 0 mm 3 mps 748 mmHg 44%
    16:00 +20°C° 0 mm 2 mps 748 mmHg 48%
    17:00 +20°C° 0 mm 2 mps 748 mmHg 52%
    18:00 +19°C° 0 mm 2 mps 748 mmHg 56%
    19:00 +18°C° 0 mm 2 mps 748 mmHg 59%
    20:00 +16°C° 0 mm 1 mps 748 mmHg 62%
    21:00 +14°C° 0 mm 1 mps 748 mmHg 65%
    22:00 +14°C° 0 mm 1 mps 748 mmHg 67%
    23:00 +13°C° 0 mm 1 mps 748 mmHg 68%

    Day after tomorrow, 24 August, Friday

    Time Temperature Precipitation Wind Pressure Humidity
    00:00 +13°C° 0 mm 1 mps 748 mmHg 69%
    01:00 +13°C° 0 mm 1 mps 748 mmHg 71%
    02:00 +12°C° 0 mm 2 mps 749 mmHg 72%
    03:00 +12°C° 0 mm 2 mps 749 mmHg 74%
    04:00 +12°C° 0 mm 2 mps 749 mmHg 75%
    05:00 +12°C° 0 mm 1 mps 749 mmHg 76%
    06:00 +11°C° 0 mm 1 mps 748 mmHg 77%
    07:00 +13°C° 0 mm 1 mps 748 mmHg 72%
    08:00 +15°C° 0 mm 2 mps 748 mmHg 66%
    09:00 +17°C° 0 mm 2 mps 748 mmHg 60%
    10:00 +19°C° 0 mm 2 mps 748 mmHg 56%
    11:00 +20°C° 0 mm 2 mps 748 mmHg 52%
    12:00 +21°C° 0 mm 2 mps 748 mmHg 48%
    13:00 +23°C° 0 mm 2 mps 748 mmHg 46%
    14:00 +23°C° 0 mm 2 mps 748 mmHg 45%
    15:00 +24°C° 0 mm 2 mps 747 mmHg 43%
    16:00 +23°C° 0 mm 2 mps 747 mmHg 47%
    17:00 +23°C° 0 mm 1 mps 747 mmHg 50%
    18:00 +23°C° 0 mm 1 mps 747 mmHg 54%
    19:00 +21°C° 0 mm 1 mps 747 mmHg 57%
    20:00 +19°C° 0 mm 1 mps 747 mmHg 60%
    21:00 +16°C° 0 mm 1 mps 747 mmHg 63%
    22:00 +16°C° 0 mm 1 mps 747 mmHg 64%
    23:00 +16°C° 0 mm 1 mps 747 mmHg 66%

    25 August, Saturday

    Time Temperature Precipitation Wind Pressure Humidity
    00:00 +15°C° 0 mm 1 mps 747 mmHg 67%
    01:00 +15°C° 0 mm 1 mps 747 mmHg 68%
    02:00 +14°C° 0 mm 1 mps 747 mmHg 69%
    03:00 +14°C° 0 mm 1 mps 747 mmHg 70%
    04:00 +14°C° 0 mm 1 mps 747 mmHg 70%
    05:00 +14°C° 0 mm 1 mps 747 mmHg 71%
    06:00 +13°C° 0 mm 1 mps 747 mmHg 71%
    07:00 +15°C° 0 mm 2 mps 747 mmHg 66%
    08:00 +17°C° 0 mm 2 mps 747 mmHg 61%
    09:00 +19°C° 0 mm 2 mps 747 mmHg 55%
    10:00 +21°C° 0 mm 2 mps 747 mmHg 51%
    11:00 +22°C° 0 mm 3 mps 747 mmHg 47%
    12:00 +24°C° 0 mm 3 mps 747 mmHg 43%
    13:00 +25°C° 0 mm 3 mps 747 mmHg 42%
    14:00 +25°C° 0 mm 3 mps 746 mmHg 41%
    15:00 +26°C° 0 mm 3 mps 746 mmHg 40%
    16:00 +25°C° 0 mm 2 mps 746 mmHg 44%
    17:00 +24°C° 0 mm 2 mps 745 mmHg 48%
    18:00 +24°C° 0 mm 2 mps 745 mmHg 52%
    19:00 +21°C° 0 mm 2 mps 745 mmHg 54%
    20:00 +19°C° 0 mm 2 mps 745 mmHg 56%
    21:00 +18°C° 0 mm 2 mps 745 mmHg 59%
    22:00 +17°C° 0 mm 2 mps 745 mmHg 60%
    23:00 +17°C° 0 mm 2 mps 745 mmHg 61%

    26 August, Sunday

    Time Temperature Precipitation Wind Pressure Humidity
    00:00 +16°C° 0 mm 2 mps 745 mmHg 62%
    01:00 +16°C° 0 mm 2 mps 745 mmHg 63%
    02:00 +15°C° 0 mm 2 mps 745 mmHg 64%
    03:00 +15°C° 0 mm 2 mps 745 mmHg 65%
    04:00 +15°C° 0 mm 2 mps 745 mmHg 66%
    05:00 +15°C° 0 mm 2 mps 745 mmHg 68%
    06:00 +14°C° 0 mm 2 mps 745 mmHg 69%
    07:00 +16°C° 0 mm 2 mps 745 mmHg 65%
    08:00 +18°C° 0 mm 2 mps 745 mmHg 61%
    09:00 +20°C° 0 mm 3 mps 745 mmHg 57%
    10:00 +22°C° 0 mm 3 mps 745 mmHg 53%
    11:00 +24°C° 0 mm 3 mps 745 mmHg 48%
    12:00 +26°C° 0 mm 3 mps 745 mmHg 43%
    13:00 +26°C° 0 mm 3 mps 745 mmHg 41%
    14:00 +27°C° 0 mm 3 mps 745 mmHg 40%
    15:00 +27°C° 0 mm 2 mps 744 mmHg 38%
    16:00 +26°C° 0 mm 2 mps 744 mmHg 42%
    17:00 +26°C° 0 mm 2 mps 744 mmHg 46%
    18:00 +25°C° 0 mm 2 mps 744 mmHg 50%
    19:00 +23°C° 0 mm 2 mps 744 mmHg 52%
    20:00 +21°C° 0 mm 2 mps 744 mmHg 54%
    21:00 +19°C° 0 mm 2 mps 744 mmHg 56%
    22:00 +19°C° 0 mm 2 mps 744 mmHg 58%
    23:00 +18°C° 0 mm 2 mps 744 mmHg 59%

    27 August, Monday

    Time Temperature Precipitation Wind Pressure Humidity
    00:00 +18°C° 0 mm 2 mps 745 mmHg 60%
    01:00 +17°C° 0 mm 2 mps 745 mmHg 62%
    02:00 +17°C° 0 mm 2 mps 745 mmHg 64%
    03:00 +16°C° 0 mm 2 mps 745 mmHg 66%
    04:00 +16°C° 0 mm 2 mps 745 mmHg 69%
    05:00 +16°C° 0 mm 2 mps 745 mmHg 71%
    06:00 +16°C° 0 mm 2 mps 745 mmHg 74%
    07:00 +18°C° 0 mm 2 mps 745 mmHg 70%
    08:00 +19°C° 0 mm 3 mps 745 mmHg 66%
    09:00 +21°C° 0 mm 3 mps 746 mmHg 62%
    10:00 +24°C° 0 mm 3 mps 746 mmHg 57%
    11:00 +25°C° 0 mm 3 mps 746 mmHg 52%
    12:00 +27°C° 0 mm 4 mps 746 mmHg 47%
    13:00 +27°C° 0 mm 3 mps 746 mmHg 46%
    14:00 +28°C° 0 mm 3 mps 746 mmHg 44%
    15:00 +28°C° 0 mm 3 mps 745 mmHg 42%
    16:00 +28°C° 0 mm 2 mps 745 mmHg 46%
    17:00 +27°C° 0 mm 2 mps 745 mmHg 49%
    18:00 +26°C° 0 mm 1 mps 745 mmHg 53%
    19:00 +25°C° 0 mm 2 mps 745 mmHg 55%
    20:00 +23°C° 0 mm 2 mps 746 mmHg 58%
    21:00 +20°C° 0 mm 2 mps 746 mmHg 61%
    22:00 +20°C° 0 mm 2 mps 746 mmHg 63%
    23:00 +19°C° 0 mm 2 mps 746 mmHg 65%
    Show more